CW9461 Weather Reports


time (UTC)temp
F
wind
direction
speed
knots
gust
knots
rain 1hr
in
rain 24hr
in
rain mn
in
humidity
%
barometer
mb
20260508043606 57 180 0.0 0.9 0.00 0.00 0.00 85 1007.6
20260508042606 57 292 0.0 0.9 0.00 0.00 0.00 84 1007.6
20260508042105 58 292 0.0 0.9 0.00 0.00 0.00 84 1007.6
20260508041606 58 292 0.9 1.7 0.00 0.00 0.00 84 1007.5
20260508041105 58 243 1.7 5.2 0.00 0.00 0.00 84 1007.5
20260508040606 58 260 2.6 5.2 0.00 0.00 0.00 83 1007.3
20260508040107 59 250 1.7 6.1 0.00 0.00 0.00 83 1007.3
20260508035605 59 256 2.6 7.0 0.00 0.00 0.00 83 1007.1
20260508035105 59 230 1.7 5.2 0.00 0.00 0.00 84 1007.1
20260508034606 59 240 1.7 5.2 0.00 0.00 0.00 84 1007.1
20260508034107 59 260 1.7 5.2 0.00 0.00 0.00 84 1006.8
20260508033606 59 248 2.6 5.2 0.00 0.00 0.00 83 1007.0
20260508033105 60 249 1.7 2.6 0.00 0.00 0.00 83 1006.8
20260508032606 60 288 0.9 1.7 0.00 0.00 0.00 82 1006.8
20260508032106 60 283 1.7 1.7 0.00 0.00 0.00 82 1006.8
20260508031606 60 271 0.9 2.6 0.00 0.00 0.00 81 1006.6
20260508030605 61 266 0.9 4.3 0.00 0.00 0.00 80 1006.8
20260508025605 62 264 2.6 5.2 0.00 0.00 0.00 79 1006.4
20260508025105 62 258 2.6 6.1 0.00 0.00 0.00 78 1006.4
20260508024605 63 256 2.6 6.1 0.00 0.00 0.00 77 1006.4
20260508024107 63 277 2.6 6.1 0.00 0.00 0.00 77 1006.4
20260508022606 64 244 4.3 8.7 0.00 0.00 0.00 75 1006.1
20260508022105 64 237 5.2 8.7 0.00 0.00 0.00 74 1006.4
20260508021605 65 225 4.3 7.8 0.00 0.00 0.00 73 1006.4
20260508021105 65 274 2.6 8.7 0.00 0.00 0.00 72 1006.4
20260508015106 67 277 3.5 6.1 0.00 0.00 0.00 68 1006.4
20260508014605 67 250 2.6 7.0 0.00 0.00 0.00 67 1006.4
20260508014106 68 278 2.6 7.0 0.00 0.00 0.00 66 1006.1
20260508012607 70 243 4.3 11.3 0.00 0.00 0.00 64 1006.1
20260508012105 70 250 2.6 7.0 0.00 0.00 0.00 64 1006.1
20260508011605 70 278 3.5 8.7 0.00 0.00 0.00 64 1006.1
20260508010606 71 234 4.3 8.7 0.00 0.00 0.00 63 1006.1
20260508010106 71 277 3.5 7.0 0.00 0.00 0.00 63 1006.2
20260508005606 71 249 3.5 12.2 0.00 0.00 0.00 63 1006.1
20260508005106 71 250 3.5 6.1 0.00 0.00 0.00 64 1006.1
20260508004106 71 286 4.3 6.1 0.00 0.00 0.00 64 1006.2
20260508003605 70 276 2.6 6.1 0.00 0.00 0.00 64 1006.2
20260508002604 71 276 4.3 7.8 0.00 0.00 0.00 63 1006.1
20260508002106 71 245 4.3 10.4 0.00 0.00 0.00 63 1006.1
20260508000605 71 273 4.3 8.7 0.00 0.00 0.00 63 1006.1
20260508000105 72 273 5.2 7.8 0.00 0.00 0.00 63 1006.1
20260507235605 72 252 5.2 7.8 0.00 0.00 0.00 62 1006.1
20260507234605 73 276 5.2 11.3 0.00 0.00 0.00 61 1006.1
20260507233605 74 254 4.3 10.4 0.00 0.00 0.00 59 1006.1
20260507233104 74 275 4.3 7.8 0.00 0.00 0.00 58 1006.1
20260507232105 75 280 4.3 8.7 0.00 0.00 0.00 57 1006.1
20260507231104 75 233 4.3 7.0 0.00 0.00 0.00 56 1006.1
20260507230605 75 271 2.6 7.0 0.00 0.00 0.00 57 1006.1
20260507230106 75 274 4.3 10.4 0.00 0.00 0.00 56 1006.1
20260507225605 75 252 4.3 7.0 0.00 0.00 0.00 56 1006.2
20260507225105 75 276 3.5 10.4 0.00 0.00 0.00 57 1006.1
20260507224605 75 271 3.5 7.0 0.00 0.00 0.00 57 1006.1
20260507223604 74 255 4.3 8.7 0.00 0.00 0.00 56 1006.4
20260507222605 74 264 2.6 7.0 0.00 0.00 0.00 56 1006.6
20260507222105 74 260 3.5 7.8 0.00 0.00 0.00 57 1006.8
20260507221605 74 276 3.5 6.1 0.00 0.00 0.00 57 1006.8
20260507221105 74 261 2.6 7.8 0.00 0.00 0.00 57 1007.0
20260507220605 73 279 3.5 7.8 0.00 0.00 0.00 57 1006.9
20260507220105 73 284 4.3 7.8 0.00 0.00 0.00 58 1007.1
20260507215606 73 265 3.5 7.0 0.00 0.00 0.00 58 1007.1
20260507215104 73 281 2.6 7.0 0.00 0.00 0.00 58 1007.1
20260507213605 72 269 3.5 7.8 0.00 0.00 0.00 59 1007.5
20260507213105 73 257 4.3 8.7 0.00 0.00 0.00 60 1007.6
20260507212606 73 278 2.6 5.2 0.00 0.00 0.00 60 1007.8
20260507212104 72 285 2.6 7.8 0.00 0.00 0.00 61 1007.8
20260507211105 72 260 2.6 8.7 0.00 0.00 0.00 60 1007.8
20260507210605 71 255 3.5 7.0 0.00 0.00 0.00 61 1007.8
20260507210105 71 260 2.6 7.0 0.00 0.00 0.00 61 1007.8
20260507205106 71 228 4.3 10.4 0.00 0.00 0.00 62 1008.1
20260507204605 70 240 4.3 7.8 0.00 0.00 0.00 63 1008.1
20260507204104 70 286 2.6 6.1 0.00 0.00 0.00 63 1008.1
20260507203105 70 269 2.6 7.0 0.00 0.00 0.00 64 1008.1
20260507202604 70 248 2.6 6.1 0.00 0.00 0.00 64 1008.2
20260507202105 70 274 2.6 7.0 0.00 0.00 0.00 65 1008.5
20260507201604 69 278 2.6 7.0 0.00 0.00 0.00 66 1008.5
20260507201106 69 266 2.6 7.8 0.00 0.00 0.00 66 1008.5
20260507200605 68 232 2.6 7.0 0.00 0.00 0.00 67 1008.5
20260507195605 68 263 3.5 8.7 0.00 0.00 0.00 67 1008.6
20260507194606 68 246 3.5 8.7 0.00 0.00 0.00 67 1008.8
20260507194105 68 254 3.5 8.7 0.00 0.00 0.00 68 1008.8
20260507193606 67 278 2.6 8.7 0.00 0.00 0.00 69 1008.8
20260507193104 67 257 2.6 7.0 0.00 0.00 0.00 70 1008.9
20260507192105 66 268 2.6 7.8 0.00 0.00 0.00 70 1009.1
20260507191605 66 253 4.3 10.4 0.00 0.00 0.00 71 1009.1
20260507191104 65 261 2.6 8.7 0.00 0.00 0.00 71 1009.1
20260507190605 65 263 3.5 7.0 0.00 0.00 0.00 71 1009.1
20260507185604 65 265 2.6 7.0 0.00 0.00 0.00 72 1009.5
20260507185105 65 250 4.3 11.3 0.00 0.00 0.00 72 1009.5
20260507184605 65 262 4.3 10.4 0.00 0.00 0.00 72 1009.5
20260507184105 64 277 3.5 7.0 0.00 0.00 0.00 73 1009.5
20260507183605 64 238 3.5 7.8 0.00 0.00 0.00 73 1009.5
20260507183105 64 255 2.6 7.0 0.00 0.00 0.00 74 1009.5
20260507181605 63 235 3.5 7.0 0.00 0.00 0.00 76 1009.5
20260507181106 62 281 3.5 8.7 0.00 0.00 0.00 76 1009.5
20260507180605 63 241 4.3 7.0 0.00 0.00 0.00 75 1009.6
20260507180105 62 266 2.6 7.0 0.00 0.00 0.00 76 1009.8
20260507175606 62 264 3.5 6.1 0.00 0.00 0.00 76 1009.8
20260507175105 62 268 4.3 7.0 0.00 0.00 0.00 77 1009.8
20260507174605 62 288 3.5 6.1 0.00 0.00 0.00 76 1009.8
20260507173604 62 262 3.5 6.1 0.00 0.00 0.00 76 1009.8
20260507172606 61 230 3.5 7.8 0.00 0.00 0.00 76 1009.8
20260507172105 62 248 2.6 7.0 0.00 0.00 0.00 76 1009.8
20260507171604 62 252 2.6 7.0 0.00 0.00 0.00 76 1009.7
20260507170606 62 270 2.6 5.2 0.00 0.00 0.00 75 1009.8
20260507170105 62 253 2.6 5.2 0.00 0.00 0.00 75 1009.8
20260507165604 62 273 2.6 5.2 0.00 0.00 0.00 75 1009.8
20260507165105 62 267 2.6 5.2 0.00 0.00 0.00 74 1009.8
20260507164605 62 233 0.9 6.1 0.00 0.00 0.00 75 1009.6
20260507164104 62 229 1.7 5.2 0.00 0.00 0.00 77 1009.7
20260507163604 61 157 0.0 5.2 0.00 0.00 0.00 77 1009.8
20260507163106 61 225 2.6 6.1 0.00 0.00 0.00 77 1009.8
20260507161605 60 192 2.6 4.3 0.00 0.00 0.00 78 1009.8
20260507161104 60 147 1.7 4.3 0.00 0.00 0.00 79 1009.8
20260507155605 59 172 0.9 2.6 0.00 0.00 0.00 82 1009.8
20260507155104 58 128 1.7 5.2 0.00 0.00 0.00 83 1010.2
20260507154604 58 226 1.7 2.6 0.00 0.00 0.00 84 1010.1
20260507154104 57 193 0.9 1.7 0.00 0.00 0.00 85 1009.9
20260507153604 57 220 0.9 2.6 0.00 0.00 0.00 85 1010.2
20260507153105 57 160 0.9 6.1 0.00 0.00 0.00 85 1010.0
20260507152605 56 228 0.9 2.6 0.00 0.00 0.00 85 1009.8
20260507152105 56 195 0.9 4.3 0.00 0.00 0.00 85 1010.2
20260507151104 56 157 0.9 7.0 0.00 0.00 0.00 86 1010.1
20260507145605 56 202 0.0 0.9 0.00 0.00 0.00 88 1010.2
20260507144604 55 225 0.9 2.6 0.00 0.00 0.00 88 1010.2
20260507144104 55 192 0.9 2.6 0.00 0.00 0.00 88 1010.2
20260507143605 55 193 0.0 2.6 0.00 0.00 0.00 89 1009.9
20260507142606 55 147 1.7 4.3 0.00 0.00 0.00 89 1009.8
20260507142105 55 196 0.9 4.3 0.00 0.00 0.00 89 1009.8
20260507141604 55 157 0.9 2.6 0.00 0.00 0.00 89 1009.8
20260507141104 54 180 0.9 2.6 0.00 0.00 0.00 89 1009.8
20260507140605 54 151 1.7 2.6 0.00 0.00 0.00 89 1009.7
20260507140106 54 157 0.9 5.2 0.00 0.00 0.00 89 1009.5
20260507135104 54 106 1.7 4.3 0.00 0.00 0.00 90 1009.7
20260507134604 54 133 1.7 2.6 0.00 0.00 0.00 90 1009.5
20260507134104 54 138 1.7 2.6 0.00 0.00 0.00 90 1009.6
20260507133104 54 153 2.6 6.1 0.00 0.00 0.00 91 1009.5
20260507132604 54 163 1.7 4.3 0.00 0.00 0.00 91 1009.5
20260507132104 54 161 0.0 2.6 0.00 0.00 0.00 91 1009.5
20260507131605 54 135 0.9 1.7 0.00 0.00 0.00 91 1009.5
20260507131105 54 135 0.9 2.6 0.00 0.00 0.00 91 1009.5
20260507130604 54 157 0.0 1.7 0.00 0.00 0.00 91 1009.5
20260507130105 54 157 0.9 1.7 0.00 0.00 0.00 91 1009.2
20260507125605 54 175 0.0 0.9 0.00 0.00 0.00 91 1009.2
20260507125104 54 157 0.9 1.7 0.00 0.00 0.00 92 1009.1
20260507123104 54 200 0.0 1.7 0.00 0.00 0.00 92 1009.2
20260507122604 54 157 0.0 1.7 0.00 0.00 0.00 92 1009.1
20260507122104 54 157 0.9 1.7 0.00 0.00 0.00 92 1009.4
20260507121604 54 180 0.0 2.6 0.00 0.00 0.00 92 1009.1
20260507120604 54 200 0.0 1.7 0.00 0.00 0.00 92 1009.1
20260507120104 54 247 0.9 2.6 0.00 0.00 0.00 92 1009.1
20260507115104 54 202 0.0 0.0 0.00 0.00 0.00 92 1009.2
20260507114103 54 135 0.0 1.7 0.00 0.00 0.00 93 1009.2
20260507113104 54 180 0.0 0.0 0.00 0.00 0.00 93 1009.1
20260507112604 54 225 0.9 0.9 0.00 0.00 0.00 93 1009.1
20260507112105 54 225 0.0 0.9 0.00 0.00 0.00 93 1009.1
20260507111604 54 157 0.0 0.9 0.00 0.00 0.00 93 1009.1
20260507110605 54 158 0.0 1.7 0.00 0.00 0.00 93 1009.1
20260507110105 54 202 0.0 0.9 0.00 0.00 0.00 93 1009.1
20260507105604 54 202 0.9 1.7 0.00 0.00 0.00 93 1009.1
20260507104604 54 239 0.9 1.7 0.00 0.00 0.00 93 1009.1
20260507104103 54 225 0.0 1.7 0.00 0.00 0.00 93 1009.1
20260507103604 54 210 0.0 0.9 0.00 0.00 0.00 93 1009.1
20260507103104 54 202 0.0 1.7 0.00 0.00 0.00 93 1009.2
20260507102604 54 187 0.0 1.7 0.00 0.00 0.00 93 1009.5
20260507101604 54 157 0.0 0.0 0.00 0.00 0.00 92 1009.1
20260507100605 54 202 0.0 0.0 0.00 0.00 0.00 92 1009.4
20260507100104 54 202 0.0 0.9 0.00 0.00 0.00 92 1009.1
20260507095604 54 202 0.0 1.7 0.00 0.00 0.00 92 1009.1
20260507095105 54 135 0.0 1.7 0.00 0.00 0.00 92 1009.1
20260507094104 54 135 0.0 1.7 0.00 0.00 0.00 92 1009.1
20260507093604 54 157 0.0 1.7 0.00 0.00 0.00 91 1009.1
20260507093104 54 162 0.0 2.6 0.00 0.00 0.00 91 1009.1
20260507092604 54 157 0.0 0.0 0.00 0.00 0.00 91 1009.4
20260507092104 54 150 0.9 2.6 0.00 0.00 0.00 91 1009.5
20260507091104 54 247 0.0 0.0 0.00 0.00 0.00 90 1009.2
20260507090605 54 247 0.0 1.7 0.00 0.00 0.00 90 1009.5
20260507090105 55 292 0.0 0.0 0.00 0.00 0.00 90 1009.5
20260507085604 55 292 0.0 1.7 0.00 0.00 0.00 90 1009.5
20260507085105 55 247 0.0 1.7 0.00 0.00 0.00 90 1009.5
20260507084604 55 157 0.0 1.7 0.00 0.00 0.00 90 1009.2
20260507084103 55 161 0.9 4.3 0.00 0.00 0.00 90 1009.5
20260507083605 55 162 0.9 2.6 0.00 0.00 0.00 90 1009.5
20260507083104 55 128 0.0 1.7 0.00 0.00 0.00 90 1009.5
20260507082104 55 157 0.9 4.3 0.00 0.00 0.00 91 1009.5
20260507081604 55 135 0.9 5.2 0.00 0.00 0.00 91 1009.5
20260507081104 55 148 0.9 5.2 0.00 0.00 0.00 91 1009.5
20260507080604 55 160 1.7 5.2 0.00 0.00 0.00 91 1009.5
20260507080104 55 138 0.9 4.3 0.00 0.00 0.00 91 1009.5
20260507075604 55 157 0.9 2.6 0.00 0.00 0.00 92 1009.5
20260507075104 55 135 0.0 1.7 0.00 0.00 0.00 92 1009.5
20260507074603 55 135 0.0 4.3 0.00 0.00 0.00 92 1009.5
20260507074104 55 170 0.9 2.6 0.00 0.00 0.00 92 1009.5
20260507073604 55 157 0.0 0.9 0.00 0.00 0.00 92 1009.4
20260507073104 55 135 0.0 0.0 0.00 0.00 0.00 92 1009.5
20260507072605 55 135 0.0 0.0 0.00 0.00 0.00 92 1009.5
20260507071604 55 90 0.0 0.0 0.00 0.00 0.00 91 1009.5
20260507070603 55 112 0.0 0.0 0.00 0.00 0.00 91 1009.5
20260507065604 55 112 0.0 0.0 0.00 0.00 0.00 91 1009.4
20260507065105 55 225 0.0 0.0 0.00 0.00 0.00 90 1009.4
20260507064603 55 202 0.0 0.0 0.00 0.00 0.00 90 1009.5
20260507064104 55 202 0.0 0.0 0.00 0.00 0.00 90 1009.5
20260507063604 56 202 0.0 0.0 0.00 0.00 0.00 90 1009.5
20260507063104 56 135 0.0 0.0 0.00 0.00 0.00 90 1009.5
20260507062603 56 225 0.0 0.0 0.00 0.00 0.00 90 1009.5
20260507062104 56 225 0.0 0.9 0.00 0.00 0.00 90 1009.5
20260507061106 55 157 0.0 0.0 0.00 0.00 0.00 89 1009.5
20260507060606 56 180 0.0 0.0 0.00 0.00 0.00 89 1009.5
20260507055107 56 180 0.0 0.0 0.00 0.00 0.00 88 1009.5
20260507054606 56 180 0.0 0.0 0.00 0.00 0.00 88 1009.5
20260507053605 56 225 0.0 0.0 0.00 0.00 0.00 87 1009.5
20260507053105 56 225 0.0 0.0 0.00 0.00 0.00 87 1009.5
20260507052605 56 225 0.0 0.0 0.00 0.00 0.00 87 1009.5
20260507052105 57 225 0.0 0.0 0.00 0.00 0.00 87 1009.5
20260507051606 57 225 0.0 1.7 0.00 0.00 0.00 87 1009.5
20260507051105 57 291 0.9 2.6 0.00 0.00 0.00 86 1009.5
20260507045606 58 225 0.9 1.7 0.00 0.00 0.00 86 1009.5
20260507045106 58 284 0.9 5.2 0.00 0.00 0.00 86 1009.5